Pagina principale
METAR-TAF:

METAR-TAF

Aeroporti :

Aeroporto di Albenga

Albenga, Italia

latitudine: 44-03N, longitudine: 008-07E, altezza: 45 m

Osservazione

Il bollettino è stato emesso 1 ora e 17 minuti fa, alle 10:50 UTC
Vento 7 kt da sud-est
Temperature 32°C
Umidità 34%
Pressione 1016 hPa
Visibilità 10 km o più
Poco nuvoloso ad un'altezza di 3500 ft

METAR: LIMG 251050Z 13007KT 9999 FEW035 32/14 Q1016

Ora: 14:07 (12:07 UTC)


TAF: mancante

Osservazioni e previsioni meteorologiche di più di 4000 aeroporti (messaggi METAR e TAF).

Le stazioni disponibili sono rappresentate dai dischi gialli e rossi sulla carta.

Puntare il mouse per vedere il nome della stazione.

Clicca sopra per visualizzare le osservazioni e previsioni meteorologiche.

Per cambiare la mappa : fare clic sui pulsanti verdi con una croce nera per ingrandire, il pulsante verde con un trattino per diminuire, o sulla freccia verde per le mappe adiacenti.


METAR-TAF: